Weather History for Del Rio, TX

Change the Weather History Date:

Wednesday, October 3, 2012

  Actual Average Record
Temperature  
Mean Temperature 78 °F 75 °F  
Max Temperature 92 °F 86 °F 106 °F (1979)
Min Temperature 63 °F 65 °F 47 °F (1975)
Degree Days  
Heating Degree Days 0 0  
Month to date heating degree days 0 0  
Since 1 July heating degree days 0 1  
Cooling Degree Days 13 11  
Month to date cooling degree days 34 33  
Year to date cooling degree days 3706 3128  
Growing Degree Days 27 (Base 50)    
Moisture  
Dew Point 54 °F    
Average Humidity 48    
Maximum Humidity 67    
Minimum Humidity 28    
Precipitation  
Precipitation 0.00 in 0.09 in 6.50 in (1944)
Month to date precipitation T 0.28  
Year to date precipitation 13.72 15.99  
Sea Level Pressure  
Sea Level Pressure 29.88 in    
Wind  
Wind Speed 10 mph (ESE)    
Max Wind Speed 18 mph    
Max Gust Speed 23 mph    
Visibility 10 miles    
Events      
T = Trace of Precipitation, MM = Missing Value Source: NWS Daily Summary

Daily Weather History Graph

Daily Weather History Graph

Search for Another Location

Airport:

Trip Planner

Search our weather history database for the weather conditions in past years. The results will help you decide how hot, cold, wet, or windy it might be!

Date:

Astronomy

Oct. 03, 2012 Rise Set
Actual Time 7:38 AM CDT 7:26 PM CDT
Civil Twilight 7:14 AM CDT 7:50 PM CDT
Nautical Twilight 6:47 AM CDT 8:17 PM CDT
Astronomical Twilight 6:19 AM CDT 8:45 PM CDT
Moon 9:38 PM CDT (10/3) 10:45 AM CDT (10/3)
Length of Visible Light 12h 35m
Length of Day
11h 47m
Waning Gibbous, 88% of the Moon is Illuminated
Oct 3
Waning Gibbous
Oct 8
Last Quarter
Oct 15
New
Oct 21
First Quarter
Oct 29
Full

Hourly Weather History & Observations

Time (CDT) Temp. Heat Index Dew Point Humidity Pressure Visibility Wind Dir Wind Speed Gust Speed Precip Events Conditions
12:53 AM 71.1 °F - 50.0 °F 47% 29.91 in 10.0 mi ESE 10.4 mph - N/A   Clear
1:53 AM 66.9 °F - 52.0 °F 59% 29.91 in 10.0 mi East 5.8 mph - N/A   Clear
2:53 AM 66.0 °F - 51.1 °F 59% 29.91 in 10.0 mi East 6.9 mph - N/A   Clear
3:53 AM 64.9 °F - 52.0 °F 63% 29.89 in 10.0 mi East 8.1 mph - N/A   Clear
4:53 AM 64.9 °F - 52.0 °F 63% 29.90 in 10.0 mi East 9.2 mph - N/A   Clear
5:53 AM 64.9 °F - 51.1 °F 61% 29.90 in 10.0 mi East 9.2 mph - N/A   Clear
6:53 AM 64.0 °F - 52.0 °F 65% 29.90 in 10.0 mi ESE 5.8 mph - N/A   Clear
7:53 AM 63.0 °F - 52.0 °F 67% 29.91 in 10.0 mi East 8.1 mph - N/A   Clear
8:53 AM 66.9 °F - 52.0 °F 59% 29.92 in 10.0 mi ESE 10.4 mph - N/A   Clear
9:53 AM 72.0 °F - 53.1 °F 51% 29.92 in 10.0 mi SE 8.1 mph - N/A   Clear
10:53 AM 75.9 °F - 55.9 °F 50% 29.92 in 10.0 mi SE 13.8 mph 23.0 mph N/A   Clear
11:53 AM 80.1 °F 80.1 °F 55.0 °F 42% 29.91 in 10.0 mi SSE 16.1 mph - N/A   Clear
12:53 PM 82.9 °F 81.8 °F 53.1 °F 36% 29.88 in 10.0 mi SSE 16.1 mph 20.7 mph N/A   Clear
1:53 PM 87.1 °F 85.1 °F 54.0 °F 32% 29.86 in 10.0 mi SE 12.7 mph 19.6 mph N/A   Clear
2:53 PM 89.1 °F 86.7 °F 53.1 °F 29% 29.83 in 10.0 mi SE 10.4 mph 19.6 mph N/A   Clear
3:53 PM 91.0 °F 88.7 °F 54.0 °F 28% 29.82 in 10.0 mi SE 10.4 mph 19.6 mph N/A   Clear
4:53 PM 91.0 °F 88.7 °F 54.0 °F 28% 29.82 in 10.0 mi SE 13.8 mph 20.7 mph N/A   Clear
5:53 PM 90.0 °F 87.9 °F 55.0 °F 30% 29.82 in 10.0 mi ESE 13.8 mph 20.7 mph N/A   Clear
6:53 PM 88.0 °F 86.9 °F 57.9 °F 36% 29.83 in 10.0 mi East 11.5 mph - N/A   Clear
7:53 PM 84.9 °F 84.4 °F 59.0 °F 41% 29.85 in 10.0 mi East 10.4 mph - N/A   Clear
8:53 PM 82.0 °F 82.7 °F 61.0 °F 49% 29.86 in 10.0 mi East 9.2 mph - N/A   Clear
9:53 PM 80.1 °F 81.1 °F 61.0 °F 52% 29.88 in 10.0 mi East 10.4 mph - N/A   Clear
10:53 PM 79.0 °F - 60.1 °F 52% 29.89 in 10.0 mi ESE 9.2 mph - N/A   Clear